VE3KSR Weather Reports


Display with metric or nautical units.
time (UTC)temp
F
wind
direction
speed
MPH
gust
MPH
rain 1hr
in
rain 24hr
in
rain mn
in
humidity
%
barometer
mb
20141127180454 29 301 11.0 15.0 0.13 0.00 0.00 98 1013.9
20141127175953 29 280 11.0 14.0 0.13 0.00 0.00 99 1014.0
20141127175453 28 300 9.0 12.0 0.13 0.00 0.00 99 1013.9
20141127174953 29 314 8.0 11.0 0.13 0.00 0.00 99 1014.1
20141127174453 28 300 9.0 12.0 0.13 0.00 0.00 99 1014.1
20141127173953 28 302 9.0 12.0 0.13 0.00 0.00 99 1014.1
20141127173453 28 291 7.0 9.0 0.13 0.00 0.00 99 1014.2
20141127172954 28 285 5.0 6.0 0.13 0.00 0.00 99 1014.3
20141127172453 28 297 6.0 8.0 0.13 0.00 0.00 99 1014.3
20141127171953 28 305 8.0 9.0 0.13 0.00 0.00 99 1014.2
20141127171454 28 300 9.0 11.0 0.13 0.00 0.00 99 1014.1
20141127170953 28 294 8.0 10.0 0.13 0.00 0.00 99 1014.1
20141127170453 28 305 11.0 13.0 0.13 0.00 0.00 99 1013.9
20141127165953 28 291 11.0 14.0 0.13 0.00 0.00 98 1014.0
20141127165453 28 305 10.0 13.0 0.13 0.00 0.00 99 1014.0
20141127164954 28 300 10.0 13.0 0.13 0.00 0.00 99 1014.0
20141127164453 28 305 8.0 12.0 0.13 0.00 0.00 99 1014.1
20141127163953 28 284 10.0 13.0 0.13 0.00 0.00 99 1014.3
20141127163453 28 309 7.0 12.0 0.13 0.00 0.00 99 1014.1
20141127162953 28 302 7.0 11.0 0.13 0.00 0.00 99 1014.1
20141127162454 28 311 8.0 9.0 0.13 0.00 0.00 99 1014.2
20141127161953 28 297 9.0 11.0 0.13 0.00 0.00 99 1014.3
20141127161455 28 304 9.0 11.0 0.13 0.00 0.00 99 1014.3
20141127160953 28 295 7.0 8.0 0.13 0.00 0.00 99 1014.4
20141127160453 28 309 7.0 9.0 0.13 0.00 0.00 100 1014.4
20141127155953 28 304 8.0 11.0 0.13 0.00 0.00 100 1014.5
20141127155453 28 304 9.0 10.0 0.13 0.00 0.00 100 1014.4
20141127154953 27 304 9.0 11.0 0.13 0.00 0.00 100 1014.3
20141127154453 27 302 10.0 12.0 0.13 0.00 0.00 100 1014.4
20141127153953 27 266 7.0 9.0 0.13 0.00 0.00 100 1014.3
20141127153454 27 262 10.0 11.0 0.13 0.00 0.00 100 1014.3
20141127152954 27 249 9.0 11.0 0.13 0.00 0.00 100 1014.3
20141127152455 27 267 9.0 11.0 0.13 0.00 0.00 100 1014.3
20141127151953 27 243 11.0 12.0 0.13 0.00 0.00 100 1014.1
20141127151453 27 253 10.0 11.0 0.13 0.00 0.00 100 1014.1
20141127150953 27 259 9.0 10.0 0.13 0.00 0.00 100 1014.3
20141127150453 27 277 7.0 9.0 0.13 0.00 0.00 100 1014.2
20141127145953 27 300 8.0 11.0 0.13 0.00 0.00 100 1014.2
20141127145454 27 271 9.0 11.0 0.13 0.00 0.00 100 1014.1
20141127144953 27 273 9.0 12.0 0.13 0.00 0.00 100 1014.1
20141127144453 27 271 9.0 12.0 0.13 0.00 0.00 98 1014.2
20141127143953 27 253 9.0 12.0 0.13 0.00 0.00 100 1014.2
20141127143453 27 269 9.0 11.0 0.13 0.00 0.00 100 1014.1
20141127142953 27 300 9.0 11.0 0.13 0.00 0.00 100 1014.1
20141127142455 27 298 7.0 9.0 0.13 0.00 0.00 100 1014.1
20141127141953 27 301 8.0 11.0 0.13 0.00 0.00 100 1014.1
20141127141453 27 307 7.0 10.0 0.13 0.00 0.00 100 1014.0
20141127140954 27 314 6.0 7.0 0.13 0.00 0.00 100 1014.1
20141127140453 27 297 6.0 8.0 0.13 0.00 0.00 100 1014.2
20141127135955 26 264 6.0 8.0 0.13 0.00 0.00 100 1014.2
20141127135453 26 295 6.0 7.0 0.13 0.00 0.00 100 1014.1
20141127134953 26 294 6.0 8.0 0.13 0.00 0.00 100 1014.2
20141127134453 26 312 6.0 7.0 0.13 0.00 0.00 100 1013.9
20141127133953 26 301 5.0 7.0 0.13 0.00 0.00 100 1013.9
20141127133453 26 0 0.0 0.0 0.13 0.00 0.00 100 1014.1
20141127132953 26 0 0.0 0.0 0.13 0.00 0.00 100 1013.9
20141127132453 26 293 5.0 6.0 0.13 0.00 0.00 100 1013.8
20141127131953 26 304 5.0 6.0 0.13 0.00 0.00 100 1013.8
20141127131453 26 0 0.0 0.0 0.13 0.00 0.00 100 1014.0
20141127130954 26 0 0.0 0.0 0.13 0.00 0.00 100 1014.0
20141127130453 26 0 0.0 0.0 0.13 0.00 0.00 100 1013.9
20141127125954 26 0 0.0 0.0 0.13 0.00 0.00 100 1014.0
20141127125453 26 0 0.0 0.0 0.13 0.00 0.00 100 1013.8
20141127124953 26 0 0.0 0.0 0.13 0.00 0.00 100 1014.2
20141127124454 26 0 0.0 0.0 0.13 0.00 0.00 100 1013.8
20141127123954 26 0 0.0 0.0 0.13 0.00 0.00 100 1014.0
20141127123454 26 0 0.0 0.0 0.13 0.00 0.00 100 1013.9
20141127122954 26 0 0.0 0.0 0.13 0.00 0.00 100 1013.9
20141127122454 26 0 0.0 0.0 0.13 0.00 0.00 100 1014.0
20141127121954 26 0 0.0 0.0 0.13 0.00 0.00 100 1013.8
20141127121455 26 0 0.0 0.0 0.13 0.00 0.00 100 1013.9
20141127121003 26 0 0.0 0.0 0.13 0.00 0.00 100 1013.8
20141127120454 26 0 0.0 0.0 0.13 0.00 0.00 100 1013.9
20141127115954 26 0 0.0 0.0 0.13 0.00 0.00 100 1013.9
20141127115454 26 0 0.0 0.0 0.13 0.00 0.00 100 1014.0
20141127114954 26 0 0.0 0.0 0.13 0.00 0.00 100 1014.1
20141127114454 26 0 0.0 0.0 0.13 0.00 0.00 100 1014.1
20141127113954 26 0 0.0 0.0 0.13 0.00 0.00 100 1014.1
20141127113454 26 0 0.0 0.0 0.13 0.00 0.00 100 1014.1
20141127112954 26 0 0.0 0.0 0.13 0.00 0.00 100 1014.0
20141127112454 26 0 0.0 0.0 0.13 0.00 0.00 100 1013.9
20141127111954 26 0 0.0 0.0 0.13 0.00 0.00 100 1013.7
20141127111454 26 332 2.0 7.0 0.13 0.00 0.00 100 1013.5
20141127110954 26 0 0.0 0.0 0.13 0.00 0.00 100 1013.5
20141127110454 26 0 0.0 0.0 0.13 0.00 0.00 100 1013.7
20141127105954 26 0 0.0 0.0 0.13 0.00 0.00 100 1013.4
20141127105454 26 0 0.0 0.0 0.13 0.00 0.00 100 1013.5
20141127104954 26 0 0.0 0.0 0.13 0.00 0.00 100 1013.4
20141127104454 26 0 0.0 0.0 0.13 0.00 0.00 100 1013.4
20141127103955 26 0 0.0 0.0 0.13 0.00 0.00 100 1013.6
20141127103454 26 0 0.0 0.0 0.13 0.00 0.00 100 1013.4
20141127102954 26 0 0.0 0.0 0.13 0.00 0.00 100 1013.5
20141127102454 26 0 0.0 0.0 0.13 0.00 0.00 100 1013.4
20141127101956 26 0 0.0 0.0 0.13 0.00 0.00 100 1013.5
20141127101454 26 0 0.0 0.0 0.13 0.00 0.00 100 1013.5
20141127100955 26 0 0.0 0.0 0.13 0.00 0.00 100 1013.5
20141127100454 26 0 0.0 0.0 0.13 0.00 0.00 99 1013.6
20141127095954 26 0 0.0 0.0 0.13 0.00 0.00 99 1013.7
20141127095454 26 0 0.0 0.0 0.13 0.00 0.00 99 1013.6
20141127094954 26 0 0.0 0.0 0.13 0.00 0.00 99 1013.6
20141127094454 26 0 0.0 0.0 0.13 0.00 0.00 99 1013.6
20141127093956 26 0 0.0 0.0 0.13 0.00 0.00 99 1013.5
20141127093454 26 0 0.0 0.0 0.13 0.00 0.00 99 1013.3
20141127092954 26 0 0.0 0.0 0.13 0.00 0.00 99 1013.3
20141127092455 26 0 0.0 0.0 0.13 0.00 0.00 99 1013.1
20141127091955 26 0 0.0 0.0 0.13 0.00 0.00 99 1013.4
20141127091455 27 0 0.0 0.0 0.13 0.00 0.00 99 1013.1
20141127090954 26 0 0.0 0.0 0.13 0.00 0.00 99 1013.3
20141127090455 26 0 0.0 0.0 0.13 0.00 0.00 99 1013.3
20141127085954 26 0 0.0 0.0 0.13 0.00 0.00 99 1013.4
20141127085455 27 0 0.0 0.0 0.13 0.00 0.00 99 1013.4
20141127084954 27 0 0.0 0.0 0.13 0.00 0.00 99 1013.3
20141127084455 27 0 0.0 0.0 0.13 0.00 0.00 99 1013.5
20141127083954 27 0 0.0 0.0 0.13 0.00 0.00 99 1013.4
20141127083455 27 0 0.0 0.0 0.13 0.00 0.00 99 1013.5
20141127082954 27 0 0.0 0.0 0.13 0.00 0.00 99 1013.8
20141127082454 27 0 0.0 0.0 0.13 0.00 0.00 99 1013.8
20141127081954 27 0 0.0 0.0 0.13 0.00 0.00 99 1014.0
20141127081455 27 0 0.0 0.0 0.13 0.00 0.00 99 1013.9
20141127080955 27 0 0.0 0.0 0.13 0.00 0.00 99 1014.0
20141127080454 27 0 0.0 0.0 0.13 0.00 0.00 99 1014.0
20141127075954 27 0 0.0 0.0 0.13 0.00 0.00 99 1014.0
20141127075455 27 0 0.0 0.0 0.13 0.00 0.00 99 1014.0
20141127074954 27 0 0.0 0.0 0.13 0.00 0.00 99 1014.0
20141127074457 27 0 0.0 0.0 0.13 0.00 0.00 99 1013.9
20141127073955 27 0 0.0 0.0 0.13 0.00 0.00 99 1013.9
20141127073456 27 0 0.0 0.0 0.13 0.00 0.00 99 1014.2
20141127072956 27 0 0.0 0.0 0.13 0.00 0.00 99 1014.0
20141127072455 27 0 0.0 0.0 0.13 0.00 0.00 99 1014.0
20141127071954 27 0 0.0 0.0 0.13 0.00 0.00 99 1014.0
20141127071454 27 0 0.0 0.0 0.13 0.00 0.00 99 1014.0
20141127070956 27 0 0.0 0.0 0.13 0.00 0.00 99 1014.1
20141127070454 27 0 0.0 0.0 0.13 0.00 0.00 99 1014.1
20141127065954 27 0 0.0 0.0 0.13 0.00 0.00 99 1014.1
20141127065454 27 0 0.0 0.0 0.13 0.00 0.00 99 1014.1
20141127064954 27 0 0.0 0.0 0.13 0.00 0.00 98 1014.1
20141127064455 27 0 0.0 0.0 0.13 0.00 0.00 98 1014.1
20141127063956 27 0 0.0 0.0 0.13 0.00 0.00 98 1014.2
20141127063454 27 0 0.0 0.0 0.13 0.00 0.00 98 1014.3
20141127062954 27 0 0.0 0.0 0.13 0.00 0.00 98 1014.3
20141127062455 27 0 0.0 0.0 0.13 0.00 0.00 98 1014.2
20141127061954 27 0 0.0 0.0 0.13 0.00 0.00 98 1014.2
20141127061454 27 0 0.0 0.0 0.13 0.00 0.00 98 1014.2
20141127060954 26 0 0.0 0.0 0.13 0.00 0.00 98 1014.3
20141127060455 27 0 0.0 0.0 0.13 0.00 0.00 98 1014.1
20141127055954 27 0 0.0 0.0 0.13 0.00 0.00 98 1014.1
20141127055458 27 0 0.0 0.0 0.13 0.00 0.00 98 1014.0
20141127054954 27 0 0.0 0.0 0.13 0.00 0.00 98 1014.3
20141127054454 27 0 0.0 0.0 0.13 0.00 0.00 98 1014.1
20141127053955 27 0 0.0 0.0 0.13 0.00 0.00 98 1014.1
20141127053454 27 0 0.0 0.0 0.13 0.00 0.00 98 1014.1
20141127052954 27 0 0.0 0.0 0.13 0.00 0.00 97 1014.1
20141127052455 27 0 0.0 0.0 0.13 0.00 0.00 97 1014.3
20141127051954 27 0 0.0 0.0 0.13 0.00 0.00 97 1014.3
20141127051454 27 0 0.0 0.0 0.13 0.00 0.00 97 1014.4
20141127050955 27 0 0.0 0.0 0.13 0.00 0.00 97 1014.4
20141127050454 27 131 4.0 5.0 0.13 0.00 0.00 97 1014.4
20141127045954 27 135 1.0 3.0 0.13 0.00 0.00 97 1014.6
20141127045455 27 0 0.0 0.0 0.13 0.00 0.00 97 1014.5
20141127044956 27 0 0.0 0.0 0.13 0.00 0.00 97 1014.7
20141127044455 27 0 0.0 0.0 0.13 0.00 0.00 97 1014.8
20141127043956 27 0 0.0 0.0 0.13 0.00 0.00 97 1014.6
20141127043454 27 0 0.0 0.0 0.13 0.00 0.00 97 1014.7
20141127042955 27 0 0.0 0.0 0.13 0.00 0.00 97 1014.8
20141127042455 27 0 0.0 0.0 0.13 0.00 0.00 97 1014.8
20141127041955 27 0 0.0 0.0 0.13 0.00 0.00 97 1014.7
20141127041455 27 0 0.0 0.0 0.13 0.00 0.00 97 1014.8
20141127040958 27 0 0.0 0.0 0.13 0.00 0.00 97 1014.8
20141127040455 27 0 0.0 0.0 0.13 0.00 0.00 97 1014.7
20141127035955 27 0 0.0 0.0 0.13 0.00 0.00 97 1014.8
20141127035457 27 129 5.0 6.0 0.13 0.00 0.00 97 1014.7
20141127034956 27 128 4.0 6.0 0.13 0.00 0.00 97 1014.6
20141127034455 27 111 6.0 7.0 0.13 0.00 0.00 97 1014.6
20141127033955 27 132 6.0 8.0 0.13 0.00 0.00 97 1014.7
20141127033456 27 132 8.0 9.0 0.13 0.00 0.00 97 1014.6
20141127032956 27 132 5.0 6.0 0.13 0.00 0.00 97 1014.7
20141127032455 27 138 6.0 7.0 0.13 0.00 0.00 97 1014.7
20141127032034 27 120 6.0 7.0 0.13 0.00 0.00 97 1014.8
20141127031956 27 120 6.0 7.0 0.13 0.00 0.00 97 1014.8
20141127031455 27 111 6.0 6.0 0.13 0.00 0.00 97 1014.8
20141127030956 27 91 2.0 5.0 0.13 0.00 0.00 96 1014.8
20141127030455 27 0 0.0 0.0 0.13 0.00 0.00 96 1015.0
20141127030045 27 0 0.0 0.0 0.13 0.00 0.00 96 1015.1
20141127025955 27 0 0.0 0.0 0.13 0.00 0.00 96 1015.1
20141127025455 27 0 0.0 0.0 0.13 0.00 0.00 96 1015.2
20141127024955 27 104 3.0 3.0 0.13 0.00 0.00 96 1015.2
20141127024455 27 87 5.0 5.0 0.13 0.00 0.00 96 1015.3
20141127023954 27 69 6.0 6.0 0.13 0.00 0.00 96 1015.3
20141127023455 27 66 6.0 6.0 0.13 0.00 0.00 96 1015.2
20141127022956 27 113 6.0 7.0 0.13 0.00 0.00 96 1015.4
20141127022455 28 66 6.0 7.0 0.13 0.00 0.00 96 1015.4
20141127021956 27 96 6.0 7.0 0.13 0.00 0.00 96 1015.4
20141127021456 27 73 6.0 6.0 0.13 0.00 0.00 96 1015.4
20141127020955 27 75 6.0 7.0 0.13 0.00 0.00 96 1015.5
20141127020457 28 72 5.0 6.0 0.13 0.00 0.00 96 1015.5
20141127015955 28 93 5.0 14.0 0.13 0.00 0.00 96 1015.4
20141127015456 28 100 5.0 6.0 0.13 0.00 0.00 95 1015.5
20141127015028 28 101 6.0 7.0 0.13 0.00 0.00 95 1015.5
20141127014955 28 101 6.0 7.0 0.13 0.00 0.00 95 1015.5
20141127014455 28 118 6.0 7.0 0.13 0.00 0.00 95 1015.6
20141127013955 28 96 7.0 7.0 0.13 0.00 0.00 95 1015.7
20141127013456 28 93 6.0 6.0 0.13 0.00 0.00 95 1015.6
20141127012955 28 96 7.0 7.0 0.13 0.00 0.00 95 1015.6
20141127012455 28 111 7.0 8.0 0.13 0.00 0.00 95 1015.6
20141127012105 28 118 6.0 7.0 0.13 0.00 0.00 95 1015.8
20141127011955 28 118 6.0 7.0 0.13 0.00 0.00 95 1015.8
20141127011455 28 82 8.0 9.0 0.13 0.00 0.00 95 1015.7
20141127011120 28 93 9.0 10.0 0.13 0.00 0.00 95 1015.6
20141127010957 28 93 9.0 10.0 0.13 0.00 0.00 95 1015.6
20141127010458 28 79 8.0 9.0 0.13 0.00 0.00 95 1015.8
20141127005956 28 115 7.0 8.0 0.13 0.00 0.00 95 1015.9
20141127005455 28 121 7.0 8.0 0.13 0.00 0.00 95 1015.9
20141127004955 28 87 7.0 8.0 0.13 0.00 0.00 95 1015.8
20141127004455 28 105 7.0 8.0 0.13 0.00 0.00 95 1015.9
20141127003955 28 84 7.0 9.0 0.13 0.00 0.00 95 1015.9
20141127003554 28 103 8.0 10.0 0.13 0.00 0.00 95 1016.1
20141127003455 28 103 8.0 10.0 0.13 0.00 0.00 95 1016.1
20141127002957 28 121 8.0 9.0 0.13 0.00 0.00 95 1016.0
20141127002455 28 94 5.0 6.0 0.13 0.00 0.00 95 1016.0
20141127001955 28 91 6.0 7.0 0.13 0.00 0.00 95 1016.0
20141127001555 28 114 9.0 10.0 0.13 0.00 0.00 95 1015.9
20141127001455 28 114 9.0 10.0 0.13 0.00 0.00 95 1015.9
20141127000956 28 120 8.0 10.0 0.13 0.00 0.00 95 1015.8
20141127000455 28 91 9.0 19.0 0.13 0.00 0.00 95 1015.9
20141126235955 28 113 8.0 10.0 0.13 0.00 0.00 95 1016.0
20141126235456 28 104 9.0 11.0 0.13 0.00 0.00 95 1015.9
20141126235108 28 122 9.0 11.0 0.13 0.00 0.00 95 1015.8
20141126234957 28 122 9.0 11.0 0.13 0.00 0.00 95 1015.8
20141126234455 28 110 9.0 12.0 0.13 0.00 0.00 95 1015.8
20141126233956 28 114 9.0 11.0 0.13 0.00 0.00 95 1015.9
20141126233456 28 86 10.0 12.0 0.13 0.00 0.00 95 1016.0
20141126232955 28 105 10.0 13.0 0.13 0.00 0.00 95 1015.9
20141126232457 28 82 9.0 11.0 0.13 0.00 0.00 95 1016.2
20141126231955 28 96 12.0 31.0 0.13 0.00 0.00 95 1016.1
20141126231455 28 68 11.0 13.0 0.13 0.00 0.00 95 1016.2
20141126230957 28 60 11.0 13.0 0.13 0.00 0.00 95 1016.1
20141126230455 28 77 11.0 13.0 0.13 0.00 0.00 95 1016.2
20141126225955 28 62 11.0 12.0 0.13 0.00 0.00 95 1016.1
20141126225455 28 86 11.0 12.0 0.13 0.00 0.00 95 1016.1
20141126224956 28 79 10.0 11.0 0.13 0.00 0.00 95 1016.1
20141126224456 28 83 11.0 12.0 0.13 0.00 0.00 95 1016.2
20141126223956 28 96 9.0 11.0 0.13 0.00 0.00 95 1016.0
20141126223455 28 103 9.0 11.0 0.13 0.00 0.00 95 1016.2
20141126222956 28 100 10.0 11.0 0.13 0.00 0.00 95 1016.1
20141126222455 28 98 11.0 12.0 0.13 0.00 0.00 95 1016.2
20141126221955 28 121 10.0 12.0 0.13 0.00 0.00 95 1016.3
20141126221458 28 121 8.0 10.0 0.13 0.00 0.00 95 1016.4
20141126220956 28 108 8.0 9.0 0.13 0.00 0.00 95 1016.4
20141126220455 28 79 8.0 9.0 0.13 0.00 0.00 95 1016.4
20141126215956 28 134 7.0 9.0 0.13 0.00 0.00 95 1016.3
20141126215455 28 110 9.0 11.0 0.13 0.00 0.00 95 1016.2
20141126214955 28 114 11.0 12.0 0.13 0.00 0.00 95 1016.2
20141126214456 28 108 10.0 12.0 0.13 0.00 0.00 95 1016.1
20141126213956 28 111 10.0 13.0 0.13 0.00 0.00 95 1016.1
20141126213456 28 122 11.0 13.0 0.13 0.00 0.00 95 1016.1
20141126212955 28 117 12.0 13.0 0.13 0.00 0.00 95 1016.0
20141126212455 28 121 12.0 13.0 0.13 0.00 0.00 95 1016.0
20141126211955 28 118 11.0 12.0 0.13 0.00 0.00 95 1016.1
20141126211457 28 121 11.0 14.0 0.13 0.00 0.00 95 1016.2
20141126210956 28 117 11.0 13.0 0.13 0.00 0.00 95 1016.1
20141126210455 28 124 11.0 14.0 0.13 0.00 0.00 94 1016.1
20141126205956 28 117 12.0 15.0 0.13 0.00 0.00 94 1016.0
20141126205455 28 125 11.0 13.0 0.13 0.00 0.00 94 1016.1
20141126204955 28 134 10.0 11.0 0.13 0.00 0.00 94 1016.2
20141126204456 28 122 10.0 12.0 0.13 0.00 0.00 94 1016.2
20141126203955 28 142 10.0 12.0 0.13 0.00 0.00 94 1016.3
20141126203456 27 139 11.0 12.0 0.13 0.00 0.00 95 1016.3
20141126202957 28 146 9.0 11.0 0.13 0.00 0.00 95 1016.3
20141126202456 28 129 9.0 11.0 0.13 0.00 0.00 95 1016.4
20141126201957 28 139 8.0 10.0 0.13 0.00 0.00 95 1016.4
20141126201456 28 117 10.0 11.0 0.13 0.00 0.00 95 1016.4
20141126200957 28 122 9.0 10.0 0.13 0.00 0.00 95 1016.6
20141126200456 28 141 8.0 9.0 0.13 0.00 0.00 96 1016.6
20141126194956 28 124 9.0 10.0 0.13 0.00 0.00 96 1016.6
20141126194456 28 134 8.0 9.0 0.13 0.00 0.00 96 1016.5
20141126193956 28 118 9.0 10.0 0.13 0.00 0.00 96 1016.5
20141126193456 28 125 8.0 10.0 0.13 0.00 0.00 96 1016.6
20141126192957 28 131 8.0 10.0 0.13 0.00 0.00 96 1016.7
20141126192456 28 135 9.0 11.0 0.13 0.00 0.00 96 1016.6
20141126191956 28 139 8.0 10.0 0.13 0.00 0.00 96 1016.6
20141126191458 28 127 7.0 8.0 0.13 0.00 0.00 96 1016.6
20141126190956 28 132 8.0 10.0 0.13 0.00 0.00 96 1016.9
20141126190457 28 128 8.0 10.0 0.13 0.00 0.00 96 1017.0
20141126185956 28 141 7.0 9.0 0.13 0.00 0.00 96 1017.2
20141126185457 28 142 8.0 13.0 0.13 0.00 0.00 96 1017.1
20141126184956 28 158 6.0 9.0 0.13 0.00 0.00 96 1017.0
20141126184457 28 165 7.0 8.0 0.13 0.00 0.00 96 1017.2
20141126183956 28 153 8.0 9.0 0.13 0.00 0.00 96 1017.1
20141126183457 28 193 8.0 10.0 0.13 0.00 0.00 96 1017.1
20141126182956 28 163 10.0 13.0 0.13 0.00 0.00 95 1017.2
20141126182456 28 165 10.0 14.0 0.13 0.00 0.00 95 1017.2
20141126181956 28 158 10.0 13.0 0.13 0.00 0.00 95 1017.3
20141126181456 28 172 10.0 13.0 0.13 0.00 0.00 95 1017.3
20141126180956 28 173 12.0 21.0 0.13 0.00 0.00 94 1017.1